Find Starlink 31426

NORAD ID: 59249 Int'l Des: 2024-049 Owner: SPXS Country: US Constellation: starlink operational
LEOCIRCULAR

实时位置

正在加载3D地球...

关于 Starlink 31426

正在加载描述...

即将过境

Passes for default location (London). Set your location on the main map for personalized predictions.

高度历史

Loading altitude history...

两行轨道根数

1 59249U 24049U 26132.44097717 .00000913 00000-0 42689-4 0 9997
2 59249 43.0024 143.6945 0001407 272.8424 87.2267 15.27578475122140
Epoch: May 12, 2026 • Age: 18 hours

当前状态

高度 482.5 km
速度 7.63 km/s
星下点 6.04°N, 13.16°E
发射日期 Mar 16, 2024
运行时间 2.1 years
类型 internet

技术详情

分类 Payload
质量 730.00 kg
干质量 700.00 kg
总质量 730.00 kg
长度 0.30 m
直径 4.10 m
跨度 29.00 m
形状 Box + pan
制造商 SPXS
平台类型 Starlink V2M
阶段状态 In Orbit
所有者/国家 SPXS/US

Most Searched